Springfield, VT

5:59 PM EST on December 13, 2017 (GMT -0500)
Hartness State

Weather History for KVSF - October, 2012

Change the Weather History Date:

Sunday, October 28, 2012

  Actual Average Record
Temperature  
Mean Temperature 53 °F 43 °F  
Max Temperature 58 °F 54 °F 70 °F (2010)
Min Temperature 47 °F 33 °F 21 °F (1999)
Degree Days  
Heating Degree Days 12 22  
Month to date heating degree days 366 491  
Since 1 July heating degree days 552 743  
Cooling Degree Days 0 0  
Month to date cooling degree days 1 0  
Year to date cooling degree days 640 344  
Growing Degree Days 2 (Base 50)    
Moisture  
Dew Point 44 °F    
Average Humidity 75    
Maximum Humidity 93    
Minimum Humidity 57    
Precipitation  
Precipitation 0.00 in 0.12 in 2.19 in (2006)
Month to date precipitation 2.65 4.12  
Year to date precipitation 28.64 36.25  
Sea Level Pressure  
Sea Level Pressure 29.97 in    
Wind  
Wind Speed 4 mph (ENE)    
Max Wind Speed 13 mph    
Max Gust Speed 16 mph    
Visibility 9 miles    
Events      
T = Trace of Precipitation, MM = Missing Value Source: NWS Daily Summary

Daily Weather History Graph

Daily Weather History Graph

Search for Another Location

Airport or City:

Trip Planner

Search our weather history database for the weather conditions in past years. The results will help you decide how hot, cold, wet, or windy it might be!

Date:

Astronomy

Oct. 28, 2012 Rise Set
Actual Time 7:20 AM EDT 5:46 PM EDT
Civil Twilight 6:51 AM EDT 6:15 PM EDT
Nautical Twilight 6:17 AM EDT 6:49 PM EDT
Astronomical Twilight 5:44 AM EDT 7:22 PM EDT
Moon 5:02 PM EDT (10/28) 6:10 AM EDT (10/28)
Length of Visible Light 11h 24m
Length of Day
10h 25m
Waxing Gibbous, 99% of the Moon is Illuminated
Oct 28
Waxing Gibbous
Oct 29
Full
Nov 6
Last Quarter
Nov 13
New
Nov 20
First Quarter

Hourly Weather History & Observations

Time (EDT) Temp. Dew Point Humidity Pressure Visibility Wind Dir Wind Speed Gust Speed Precip Events Conditions
12:46 AM 53.6 °F 50.0 °F 88% 30.03 in 7.0 mi Calm Calm - N/A   Overcast
12:54 AM 53.1 °F 50.0 °F 89% 30.04 in 6.0 mi Calm Calm - N/A   Overcast
1:54 AM 53.1 °F 50.0 °F 89% 30.04 in 6.0 mi Calm Calm - N/A   Overcast
2:54 AM 53.1 °F 50.0 °F 89% 30.02 in 5.0 mi Calm Calm - N/A   Overcast
3:54 AM 53.1 °F 50.0 °F 89% 30.02 in 6.0 mi Calm Calm - N/A   Overcast
4:54 AM 53.1 °F 50.0 °F 89% 30.01 in 6.0 mi Calm Calm - N/A   Overcast
5:54 AM 51.1 °F 48.0 °F 89% 30.02 in 5.0 mi Calm Calm - N/A   Clear
6:54 AM 48.9 °F 46.0 °F 90% 30.03 in 7.0 mi Calm Calm - N/A   Clear
7:54 AM 48.0 °F 45.0 °F 89% 30.04 in 7.0 mi Calm Calm - N/A   Clear
9:54 AM 54.0 °F 39.9 °F 59% 30.04 in 10.0 mi Calm Calm - N/A   Clear
10:54 AM 55.9 °F 41.0 °F 57% 30.03 in 10.0 mi East 9.2 mph - N/A   Clear
11:54 AM 55.9 °F 41.0 °F 57% 30.02 in 10.0 mi East 9.2 mph - N/A   Scattered Clouds
12:54 PM 57.0 °F 42.1 °F 57% 30.00 in 10.0 mi ENE 4.6 mph - N/A   Overcast
1:22 PM 57.2 °F 42.8 °F 59% 29.98 in 10.0 mi NE 8.1 mph - N/A   Overcast
1:54 PM 57.9 °F 42.1 °F 56% 29.98 in 10.0 mi NNE 8.1 mph - N/A   Overcast
2:34 PM 57.2 °F 42.8 °F 59% 29.94 in 10.0 mi East 4.6 mph - N/A   Mostly Cloudy
2:54 PM 57.9 °F 42.1 °F 56% 29.94 in 10.0 mi East 6.9 mph - N/A   Mostly Cloudy
3:54 PM 57.0 °F 42.1 °F 57% 29.94 in 10.0 mi East 6.9 mph - N/A   Overcast
4:54 PM 55.9 °F 42.1 °F 60% 29.92 in 10.0 mi ESE 5.8 mph - N/A   Scattered Clouds
5:54 PM 54.0 °F 42.1 °F 64% 29.92 in 10.0 mi Calm Calm - N/A   Clear
6:54 PM 54.0 °F 43.0 °F 66% 29.93 in 10.0 mi Calm Calm - N/A   Mostly Cloudy
7:29 PM 53.6 °F 42.8 °F 67% 29.92 in 10.0 mi Calm Calm - N/A   Mostly Cloudy
7:54 PM 54.0 °F 43.0 °F 66% 29.93 in 10.0 mi Calm Calm - N/A   Overcast
8:54 PM 53.1 °F 43.0 °F 69% 29.93 in 10.0 mi ENE 5.8 mph - N/A   Overcast
9:18 PM 53.6 °F 42.8 °F 67% 29.92 in 10.0 mi ENE 8.1 mph - N/A   Mostly Cloudy
9:40 PM 53.6 °F 42.8 °F 67% 29.92 in 10.0 mi East 8.1 mph - N/A   Overcast
9:54 PM 53.1 °F 42.1 °F 66% 29.93 in 10.0 mi East 6.9 mph - N/A   Overcast
10:54 PM 53.1 °F 42.1 °F 66% 29.89 in 10.0 mi NE 8.1 mph - N/A   Overcast
11:54 PM 53.1 °F 43.0 °F 69% 29.88 in 10.0 mi Variable 5.8 mph - N/A   Overcast